Вернуться в каталог

STARLINK-36295

АктивенСвязьSSO
NORAD 68667·PAYLOAD·🇺🇸 United States

Запущен Apr 11, 2026 с Vandenberg Space Force Base

Loading…

Ближайшие Пролёты (ближайшие 24 часа)

TLE

СвежийSource: CelesTrak SupGP

Эпоха: Sep 14, 2026, 23:21 UTC

1 68667C 26077F   26257.97340278  .00078937  00000+0  24514-2 0  2575
2 68667  97.2849 127.9064 0002432  92.6445 262.1645 15.33384394    14

Отслеживайте STARLINK-36295 в реальном времени с AllMySat

Download on the App Store